Dewpoint
62 62 61 60 59 57 55 53 50 49 49 50 53 52 53 54 55 55 56 56 56 54 53 53 53 53 52 52 52 51 51 50 50 50 50 50 50 50 48 47 48 46 45
62 61 60 58 57 56 53 50 49 48 48 49 52 53 53 54 54 55 55 55 55 55 54 53 53 53 52 52 51 51 50 50 50 50 50 50 50 49 47 46 46 45 45
62 60 58 56 55 53 50 49 51 48 48 50 51 53 53 53 54 54 55 55 55 55 55 54 53 53 52 52 51 51 51 50 50 50 50 49 48 47 46 46 45 44 43
62 59 56 54 54 53 49 50 52 50 49 50 51 52 53 53 54 54 54 54 54 54 55 55 54 54 53 52 52 51 51 51 50 50 50 50 50 48 46 45 44 44 43
62 58 55 53 54 52 48 52 53 52 50 50 50 51 52 53 53 53 53 54 54 54 54 55 55 54 54 53 52 52 52 51 50 50 50 50 50 49 48 46 44 43 43
61 59 55 54 53 53 49 53 53 53 51 50 49 49 51 53 53 53 53 53 53 53 53 53 55 54 54 54 53 52 52 51 52 52 50 51 51 50 49 48 46 44 43
61 60 56 56 54 53 50 54 54 51 49 49 47 46 47 51 52 52 53 52 52 53 52 52 53 53 53 55 54 52 52 52 52 52 52 51 51 52 51 49 49 46 43
61 60 58 56 55 53 54 55 53 50 48 47 46 44 42 43 48 49 52 52 51 52 52 52 52 53 52 53 54 54 52 52 52 52 53 53 53 53 53 51 49 48 45
60 60 59 57 57 56 56 54 52 50 47 47 45 43 42 40 42 44 47 51 51 51 51 51 51 51 52 51 53 54 54 53 53 53 54 54 54 53 53 53 51 49 48
60 59 59 58 58 57 56 55 52 50 47 45 47 47 46 44 42 41 44 45 48 51 51 51 51 51 51 51 51 51 52 52 53 53 54 54 54 54 53 53 54 52 50
59 58 57 58 58 58 56 54 52 51 49 49 46 48 47 48 48 43 41 42 44 45 47 51 51 51 52 52 51 51 51 51 51 52 53 53 54 54 55 54 54 54 52
59 57 57 57 58 57 55 55 55 54 53 51 49 48 47 46 46 47 45 44 42 43 45 46 48 50 50 51 51 51 50 50 50 51 52 53 53 53 53 54 54 54 54
58 57 57 57 57 58 58 57 56 55 55 54 52 51 49 47 47 47 46 45 45 46 46 47 46 46 47 49 49 49 49 48 48 49 50 51 52 53 52 52 53 54 54
57 57 57 57 57 57 57 57 56 56 55 55 54 53 52 50 49 48 47 46 45 47 48 48 49 47 47 48 48 48 48 48 47 47 47 48 49 50 51 51 52 52 54
58 57 57 57 57 57 56 56 55 55 54 54 54 55 54 53 53 52 51 50 48 46 46 48 49 51 50 48 48 48 48 48 48 47 47 47 48 48 49 50 50 50 51
56 56 56 56 57 57 56 56 55 55 54 54 55 54 54 54 54 55 54 54 53 51 48 48 49 50 51 51 51 50 50 50 50 50 50 48 48 48 48 49 49 49 50
56 55 55 55 55 56 56 56 55 54 54 53 52 52 52 53 53 53 54 54 53 53 51 51 52 53 52 51 52 53 54 54 53 49 46 45 46 46 46 46 46 47 48
55 55 54 54 54 55 55 55 54 54 53 52 53 53 53 53 54 54 54 54 54 54 53 52 53 54 52 48 44 44 42 42 42 44 44 43 42 42 42 43 44 44 45
54 54 54 53 53 53 54 54 54 53 53 53 53 52 52 50 52 48 47 47 46 47 47 46 47 42 42 38 38 39 38 39 37 39 41 42 40 40 40 40 40 40 41
55 54 54 53 53 54 53 53 53 53 53 49 43 40 38 38 39 41 39 39 40 41 40 39 38 36 34 35 35 32 32 33 33 36 35 35 35 35 37 38 39 39 39
55 55 55 54 54 53 52 53 53 53 46 39 37 36 35 35 34 34 34 34 35 35 34 33 32 31 30 29 28 30 30 29 30 33 29 30 31 31 32 32 33 34 36
55 52 52 46 43 42 45 48 47 42 38 36 34 33 33 33 33 32 32 31 31 31 31 30 28 28 27 27 27 25 24 24 24 28 26 25 29 29 28 24 24 28 32
43 41 39 37 36 36 38 38 37 36 34 33 32 32 32 32 32 31 31 31 31 30 29 29 26 26 25 26 26 23 23 23 22 25 20 19 25 21 17 17 17 24 22
38 36 34 33 33 33 33 33 32 31 30 30 30 30 30 30 31 30 29 28 28 28 29 29 28 27 25 23 21 20 19 18 17 19 20 17 17 16 15 16 15 19 16
34 33 32 32 31 31 31 30 29 29 28 28 29 28 27 27 28 28 27 24 22 23 26 24 22 20 18 18 18 17 15 14 13 14 17 12 14 14 12 14 17 11 10
32 32 31 31 31 30 31 29 28 27 26 27 27 27 27 28 27 26 24 20 20 21 20 17 15 14 14 14 13 14 13 11 11 10 14 8 8 9 7 9 10 11 13
Wind_Speed
22 19 20 17 17 14 13 15 14 14 13 13 14 16 15 14 14 12 13 19 17 18 18 17 16 15 14 13 13 13 12 11 11 11 11 11 10 10 8 8 7 6 6
21 20 19 17 14 15 14 17 17 15 14 11 14 15 15 13 13 14 15 15 17 17 17 17 16 16 15 14 13 13 13 13 12 12 11 11 11 10 9 8 8 7 7
21 22 20 18 18 15 17 16 13 12 14 9 16 15 14 15 13 15 15 14 15 17 17 17 16 16 16 15 15 14 14 14 13 13 12 13 12 11 10 9 10 9 8
24 23 21 20 18 16 17 16 16 15 14 11 14 15 13 14 12 13 14 15 14 13 16 17 17 16 16 15 16 16 16 15 15 15 15 14 14 13 14 13 12 12 12
26 24 21 20 20 18 18 17 14 15 16 14 15 15 15 15 14 12 13 14 16 14 14 17 18 17 16 18 18 17 17 17 17 17 17 16 17 17 17 16 16 17 16
25 24 20 21 22 20 18 17 19 14 14 18 13 14 14 13 12 13 15 13 14 14 14 16 16 16 20 19 19 19 18 18 19 20 20 19 20 21 21 21 20 20 19
25 24 22 23 24 23 23 21 14 19 14 14 12 7 7 9 13 14 12 13 14 15 14 15 15 14 16 21 21 21 22 23 23 24 23 23 23 23 23 25 24 23 23
27 26 26 26 26 22 24 22 23 15 9 17 12 9 6 4 8 10 10 13 16 14 16 16 16 17 16 16 19 25 27 26 25 26 26 25 26 27 27 28 29 27 27
25 26 27 26 27 24 23 24 22 25 20 14 19 9 6 7 5 7 12 16 15 15 15 17 18 18 18 17 18 22 28 27 27 28 28 29 30 31 30 31 31 31 30
24 24 26 25 25 23 24 23 20 20 19 21 10 8 6 9 5 6 5 10 14 17 20 16 17 19 18 18 21 23 27 33 32 32 33 32 32 32 32 33 34 33 33
23 22 23 23 23 20 21 21 18 20 12 14 17 9 5 4 4 5 4 7 7 14 17 18 18 17 18 19 19 24 31 33 35 36 35 35 33 33 33 35 36 36 36
22 19 18 21 20 20 21 17 14 14 12 6 14 12 10 7 8 4 4 6 9 9 17 16 17 18 17 19 23 28 29 32 35 34 33 34 35 36 36 36 38 38 38
24 21 18 20 20 18 17 16 15 16 16 17 11 9 9 13 8 13 9 11 14 13 9 14 17 18 17 17 21 27 27 30 34 32 33 32 33 35 37 36 38 42 40
22 21 19 18 22 22 19 17 16 14 12 12 10 13 18 14 11 12 11 13 9 10 9 13 9 17 17 19 20 26 22 27 29 28 30 34 32 33 34 35 36 40 42
18 24 22 18 19 19 20 18 15 15 15 14 16 16 16 13 14 13 14 14 15 17 17 10 15 16 19 17 22 22 21 21 23 26 29 31 32 33 34 34 36 37 39
17 20 24 25 21 18 18 17 14 12 15 14 14 16 15 13 14 13 15 15 15 19 23 20 16 16 16 16 19 19 17 15 17 22 27 27 28 29 30 31 33 35 37
17 17 17 19 21 18 19 17 16 15 18 18 16 17 19 15 16 15 14 16 16 16 22 24 18 18 12 15 10 7 10 12 8 10 15 17 19 22 24 26 28 30 32
17 20 18 18 18 17 16 19 18 17 19 20 18 17 20 14 18 17 14 16 17 16 18 24 17 8 4 11 11 12 13 13 12 13 18 18 18 18 18 19 23 25 27
18 18 18 19 19 19 17 17 18 18 17 18 14 13 8 5 9 2 4 3 5 6 5 4 1 7 7 12 8 9 12 12 12 15 16 15 18 18 18 18 18 18 19
19 19 20 20 19 18 18 17 17 16 15 5 9 11 11 7 3 3 6 6 5 5 7 8 5 7 8 8 7 13 12 13 16 11 14 16 19 21 20 21 19 20 19
17 17 18 17 16 17 16 18 17 12 13 16 17 18 18 21 24 18 11 11 10 11 10 12 11 6 7 8 13 11 8 15 12 9 17 14 14 12 14 18 20 24 24
14 12 11 13 11 5 2 13 18 17 19 19 19 17 15 18 22 24 26 29 22 14 14 10 11 10 10 8 10 11 12 12 8 11 15 15 11 11 13 15 24 28 24
17 17 16 17 17 15 19 25 27 21 21 19 18 17 13 12 14 14 20 21 22 22 19 12 14 9 5 8 9 12 10 9 9 9 13 12 11 13 17 16 23 19 23
20 20 20 20 22 19 24 27 30 26 25 21 18 17 17 16 14 14 15 19 17 19 14 12 13 14 16 15 13 8 9 9 9 8 13 5 12 15 14 15 21 19 28
22 21 19 21 24 21 22 26 29 26 26 24 21 20 19 18 19 18 17 17 15 16 19 23 22 22 20 20 18 11 16 14 11 11 12 13 12 19 17 12 8 26 30
25 22 24 21 23 24 23 24 25 25 28 24 22 22 23 20 21 19 16 15 16 14 15 16 16 16 16 15 18 14 12 13 14 9 12 16 16 17 11 7 22 15 15
Wind_Direction
164 160 166 163 156 159 166 162 167 149 156 141 142 141 140 150 142 146 147 149 152 149 153 152 159 158 166 160 159 154 156 159 160 162 160 158 157 155 156 156 147 156 148
165 167 164 157 158 163 165 170 158 160 166 138 141 143 148 144 148 154 146 156 157 159 161 165 167 169 171 169 168 168 172 176 176 180 178 176 169 168 179 181 179 181 177
159 160 161 163 164 167 159 150 152 165 163 149 147 150 146 149 160 153 147 156 167 171 170 172 176 179 181 178 181 185 186 187 194 197 195 194 189 195 198 200 201 200 203
159 161 166 167 161 158 162 160 165 169 175 169 145 152 152 146 162 159 160 160 174 179 184 179 187 187 191 188 193 196 200 203 203 211 209 210 203 209 208 213 215 213 210
162 162 168 165 159 164 168 169 172 168 178 180 152 157 151 152 168 164 175 176 185 187 186 191 195 194 200 205 207 208 212 213 217 222 223 219 219 220 219 222 223 223 218
165 164 166 163 162 170 172 171 176 176 179 177 152 152 161 160 164 177 187 189 193 198 197 196 199 204 206 209 217 219 223 227 227 228 229 231 224 225 225 228 231 229 226
172 167 169 164 170 174 178 176 169 170 178 167 145 133 120 172 176 182 188 193 199 206 207 207 204 206 215 215 218 225 231 232 231 234 232 232 232 228 227 231 234 233 231
177 173 173 175 174 179 180 182 173 163 172 169 165 143 151 140 204 205 200 200 206 205 212 215 214 214 213 216 222 225 232 235 237 239 238 233 233 234 231 229 234 233 235
179 176 174 179 180 180 181 182 178 175 173 177 164 157 137 204 158 170 207 213 212 209 215 215 219 219 218 218 224 228 232 236 240 241 241 240 234 233 233 232 231 235 234
185 179 178 178 187 180 183 183 178 177 163 175 151 161 153 145 164 208 239 202 210 218 223 219 219 222 221 221 224 226 231 234 237 240 242 243 242 239 236 235 233 232 233
188 179 177 173 182 181 176 176 167 160 149 168 168 152 143 108 145 130 202 236 256 233 225 220 218 218 220 223 227 231 233 234 236 238 241 245 245 245 243 241 239 235 233
176 173 165 167 171 167 159 146 132 142 162 156 160 151 164 177 198 154 177 212 219 251 240 237 230 226 223 225 230 233 235 237 239 240 244 246 247 247 246 247 248 243 239
172 163 157 153 162 164 151 149 151 153 155 160 174 192 226 216 181 204 207 236 232 246 253 241 233 237 239 231 236 240 243 240 243 242 245 249 250 248 247 248 252 254 247
161 154 152 154 143 139 148 157 156 154 156 168 195 220 237 230 223 192 209 216 259 244 243 242 235 234 238 238 239 243 240 244 251 251 252 255 253 250 250 249 249 254 253
163 165 154 146 132 138 138 146 161 173 175 188 213 229 234 237 228 235 225 226 240 266 267 259 247 230 234 233 237 242 243 245 249 250 256 260 256 253 253 257 259 257 253
149 155 170 165 154 148 152 165 175 180 196 213 214 220 226 235 234 228 233 233 229 245 267 273 260 244 236 237 242 240 240 255 265 270 271 268 261 259 260 261 262 262 259
150 156 159 158 163 166 175 175 187 195 210 224 229 234 242 239 244 248 239 240 241 237 254 270 267 266 257 246 259 268 260 260 285 330 357 337 314 298 288 278 271 270 270
163 167 165 168 172 177 175 189 197 201 211 224 231 231 240 245 250 250 242 243 242 245 250 261 269 278 64 35 33 43 2 354 359 352 341 342 344 342 333 312 296 287 280
165 170 169 177 184 190 187 197 203 207 210 217 228 237 262 280 267 321 344 342 0 343 10 20 96 45 41 29 4 15 4 2 354 356 5 6 3 356 350 347 340 331 321
168 173 181 188 194 196 202 205 207 209 212 146 83 71 59 51 51 66 66 38 30 63 68 38 65 27 24 20 24 10 353 358 351 13 13 5 353 346 345 344 337 333 326
177 179 182 191 199 203 209 214 213 207 144 107 89 84 77 74 67 66 76 58 54 66 55 54 60 54 24 29 12 350 349 341 331 28 358 352 340 338 342 344 340 335 324
171 153 135 124 107 91 185 140 135 119 112 111 107 98 90 82 75 72 69 65 59 60 53 87 60 41 24 13 4 359 356 353 344 10 342 329 343 1 7 355 347 341 345
112 102 96 96 88 74 90 103 105 100 99 98 98 96 87 81 88 85 77 71 67 58 62 61 72 47 9 3 4 6 2 346 329 341 354 328 12 350 341 332 327 327 345
111 110 102 96 91 80 90 96 97 97 91 83 80 80 82 74 71 82 74 64 54 61 51 56 61 57 53 39 30 23 355 334 328 342 18 307 333 333 324 315 314 346 342
102 100 100 102 100 94 96 102 100 95 91 87 80 73 73 66 67 74 76 74 60 50 60 65 60 54 44 39 35 23 14 7 351 335 23 350 339 325 317 294 357 340 335
106 104 99 95 99 101 100 101 105 110 104 98 90 84 78 78 70 70 77 71 67 50 56 47 39 37 35 29 29 32 17 10 355 334 7 344 331 347 320 302 339 316 330